Regional Weather Roundup
Issued by NWS Binghamton, NY

Home | Current Version | Previous Version | Text Only | Print | Product List | Glossary On
Versions: 1 2 3 4 5 6 7 8 9 10 11 12 13 14 15 16 17 18 19 20 21 22 23 24 25 26 27
000
ASUS41 KBGM 161110
RWRBGM

REGIONAL WEATHER ROUNDUP
NATIONAL WEATHER SERVICE BINGHAMTON NY
600 AM EST MON JAN 16 2017

Note: "fair" indicates few or no clouds below 12,000 feet with no
significant weather and/or obstructions to visibility.

* = Station(s) that does not report precipitation, such as rain,
snow, etc, also no thunder or fog.

NYZ009-015>018-022>025-036-037-044>046-055>057-062-161200
...Central New York...

CITY           SKY/WX    TMP DP  RH WIND       PRES   REMARKS
Binghamton     CLEAR     19  15  84 SW6       30.32S WCI  11
Cortland       FAIR      14  14 100 CALM      30.35S
Dansville      CLEAR     19  14  81 SE8       30.36S WCI   9
Elmira         CLOUDY    12   7  80 CALM      30.38S
Seneca Falls   SUNNY     25  21  86 S6        30.38S WCI  18
Ithaca         CLEAR     18  15  88 S7        30.35F WCI   9
Hamilton       CLEAR     14  10  85 CALM      30.36R
Monticello     CLEAR     12  10  92 CALM      30.37S
Norwich        CLEAR     10   9  92 CALM      30.39S
Oneonta        CLEAR     14  10  85 CALM      30.31F
Penn Yan       CLEAR     22  17  81 SW9       30.35R WCI  12
Rome           CLEAR     18  16  92 SE3       30.40F
Sidney         CLEAR     12  12 100 CALM      30.38F
Syracuse       CLEAR     20  16  84 E3        30.37R
$$

PAZ038>040-043-044-047-048-072-161200
...Northeast Pennsylvania...

CITY           SKY/WX    TMP DP  RH WIND       PRES   REMARKS
Hazleton       CLEAR      9   3  78 MISG      30.38S
Scranton       CLOUDY    13  10  88 E3        30.41R
$$
&&
KEY
WCI = Wind Chill Index
VSB = Visibility
HX  = Heat Index
$$




USA.gov is the U.S. government's official web portal to all federal, state and local government web resources and services.